Flag for Russia Weather past 2 weeks in Novorossiysk, Russia

Now
82 °F

Passing clouds.


Feels Like: 86 °F
Forecast: 63 / 92 °F
Wind: 8 mph from West

Location: Anapa / Vitiazevo

Current Time: Jul 7, 2015 at 6:32:23 PM

Latest Report: Jul 7, 2015 at 6:00 PM


Visibility: N/A

Pressure: 29.92 "Hg

Humidity: 66%

Dew point: 70 °F

Location of NovorossiyskLocation

Historic Weather in Novorossiysk — Graph

°F

Novorossiysk temperature yesterday

Maximum temperature yesterday: 79 °F (at 10:30 AM)
Minimum temperature yesterday: 64 °F (at 3:00 AM)
Average temperature yesterday: 73 °F

Past Weeks' High & Low Weather Summary

 TemperatureHumidityPressure
High86 °F (Jun 23, 1:00 PM)100% (Jun 24, 3:00 AM)30.12 "Hg (Jun 24, 3:00 AM)
Low55 °F (Jun 29, 5:00 AM)43% (Jun 23, 1:00 PM)29.59 "Hg (Jun 25, 11:00 PM)
Average72 °F79%29.89 "Hg
* Reported Jun 22 5:00 PM — Jul 7 5:30 PM, Novorossiysk, Weather by CustomWeather, © 2015

Note: Actual official high and low records may vary slightly from our data, if they occured in-between our weather recording intervals... More about our weather records

Advertising

Novorossiysk weather history for previous 24 hours

 ConditionsComfort  
Time TempWeatherWind HumidityBarometerVisibility
5:30 PM
Tue, Jul 7
82 °FScattered clouds.6 mph70%29.92 "HgN/A
5:00 PM82 °FPassing clouds.6 mph66%29.92 "HgN/A
4:30 PM82 °FPassing clouds.8 mph66%29.92 "HgN/A
4:00 PM82 °FPassing clouds.8 mph70%29.92 "HgN/A
3:30 PM82 °FScattered clouds.8 mph70%29.92 "HgN/A
3:00 PM81 °FScattered clouds.8 mph74%29.92 "HgN/A
2:30 PM82 °FScattered clouds.8 mph66%29.92 "HgN/A
2:00 PM81 °FScattered clouds.8 mph74%29.92 "HgN/A
1:30 PM81 °FScattered clouds.6 mph74%29.92 "HgN/A
1:00 PM81 °FPassing clouds.8 mph70%29.92 "HgN/A
12:30 PM79 °FPassing clouds.8 mph74%29.95 "HgN/A
12:00 PM79 °FPassing clouds.8 mph74%29.95 "HgN/A
11:30 AM79 °FPassing clouds.8 mph74%29.95 "HgN/A
11:00 AM81 °FPassing clouds.8 mph74%29.95 "HgN/A
10:30 AM79 °FPassing clouds.6 mph74%29.95 "HgN/A
10:00 AM79 °FPassing clouds.8 mph74%29.95 "HgN/A
9:30 AM79 °FPassing clouds.6 mph74%29.95 "HgN/A
9:00 AM77 °FPassing clouds.6 mph79%29.95 "HgN/A
8:30 AM77 °FPassing clouds.6 mph74%29.95 "HgN/A
8:00 AM75 °FPassing clouds.6 mph78%29.95 "HgN/A
7:30 AM73 °FPassing clouds.6 mph83%29.92 "HgN/A
7:00 AM72 °FSunny.6 mph88%29.92 "Hg10 mi
6:00 AM68 °FSunny.6 mph94%29.92 "Hg10 mi
5:30 AM66 °FClear.6 mph94%29.92 "Hg10 mi
5:00 AM66 °FPartly cloudy.6 mph94%29.92 "HgN/A
4:00 AM64 °FPassing clouds.6 mph100%29.92 "HgN/A
3:00 AM63 °FPassing clouds.6 mph100%29.92 "HgN/A
2:00 AM63 °FPassing clouds.3 mph100%29.92 "HgN/A
1:00 AM63 °FPassing clouds.6 mph94%29.95 "HgN/A
12:00 AM64 °FPassing clouds.6 mph94%29.95 "HgN/A
11:30 PM
Mon, Jul 6
64 °FPassing clouds.3 mph94%29.95 "HgN/A
11:00 PM66 °FPassing clouds.6 mph88%29.95 "HgN/A
10:30 PM68 °FPassing clouds.6 mph94%29.95 "HgN/A
10:00 PM68 °FPassing clouds.6 mph88%29.95 "HgN/A
9:30 PM70 °FPassing clouds.8 mph88%29.95 "HgN/A
9:00 PM70 °FScattered clouds.8 mph88%29.95 "HgN/A
8:30 PM70 °FScattered clouds.6 mph88%29.95 "HgN/A
8:00 PM72 °FPassing clouds.6 mph83%29.95 "HgN/A
7:30 PM72 °FPassing clouds.8 mph83%29.95 "HgN/A
7:00 PM73 °FPassing clouds.10 mph78%29.92 "HgN/A
6:30 PM75 °FPassing clouds.10 mph74%29.92 "HgN/A
6:00 PM75 °FScattered clouds.10 mph74%29.92 "HgN/A
Weather by CustomWeather, © 2015

See weather overviewHow to use our weather pages